Regional Weather Roundup
Issued by NWS Kansas City/Pleasant Hill, MO

Home | Current Version | Previous Version | Text Only | Print | Product List | Glossary On
Versions: 1 2 3 4 5 6 7 8 9 10 11 12 13 14 15 16 17 18 19 20 21 22 23 24 25 26 27 28 29 30 31 32 33 34 35 36 37 38 39 40 41 42 43 44 45 46 47 48 49 50
000
ASUS43 KEAX 211410
RWREAX

WEATHER ROUNDUP FOR EASTERN KANSAS AND NORTHWEST MISSOURI
NATIONAL WEATHER SERVICE KANSAS CITY/PLEASANT HILL MO
900 AM CDT THU SEP 21 2017

KSZ040-057-103>105-MOZ028-029-037-043-211500-
...KANSAS CITY METROPOLITAN AREA...

CITY           SKY/WX    TMP DP  RH WIND       PRES   REMARKS
K.C. INTL      MOSUNNY   79  72  79 S13       29.92R
K.C. DOWNTOWN  MOSUNNY   81  72  74 S9        29.92R
LEES SUMMIT    PTSUNNY   77  72  84 S12G22    29.95R
OLATHE - IXD   SUNNY     78  71  79 S13       29.93R
OLATHE - OJC   SUNNY     76  72  87 S14       29.94R
LAWRENCE       SUNNY     78  73  84 SE12      29.90R

$$

MOZ001>008-011>017-020>025-030>033-038>040-044>046-053-054-211500-
...NORTHERN AND CENTRAL MISSOURI...

CITY           SKY/WX    TMP DP  RH WIND       PRES   REMARKS
ST. JOSEPH     PTSUNNY   80  74  81 S10       29.90R
MOSBY          SUNNY     75  70  83 SE6       29.93R
WHITEMAN AFB   PTSUNNY   78  78 100 S10       29.96R
CLINTON        NOT AVBL
SEDALIA        SUNNY     80  73  79 S12       29.99R
WARSAW         NOT AVBL
CHILLICOTHE      N/A     77  73  87 SE5       29.96R
KIRKSVILLE     CLOUDY    69  66  90 E15G24    30.04R

$$

MOZ041-047>049-056>058-063>065-088>090-097-211500-
...EASTERN AND SOUTHERN MISSOURI...

CITY           SKY/WX    TMP DP  RH WIND       PRES   REMARKS
ST. LOUIS INTL PTSUNNY   81  72  74 S6        30.02S
SPIRIT OF STL  CLOUDY    80  73  79 CALM      30.01R
COLUMBIA       SUNNY     77  72  84 S9        30.01R
JEFFERSON CITY SUNNY     76  70  82 E5        30.00R
ROLLA          SUNNY     78  72  81 S9        30.04R
OSAGE BEACH    SUNNY     76  71  85 SE7       30.02R
SPRINGFIELD    SUNNY     77  73  87 S14       30.01R
BRANSON        MOSUNNY   77  72  83 SE7       30.04S
JOPLIN         SUNNY     78  73  84 S10G20    29.97R
WEST PLAINS    SUNNY     76  71  85 S6        30.07S

$$

IAZ060-094-KSZ022-034>040-054-083-096-NEZ052-066-093-211500-
...KANSAS...SOUTHEAST NEBRASKA AND IOWA...

CITY           SKY/WX    TMP DP  RH WIND       PRES   REMARKS
TOPEKA         SUNNY     79  74  84 SE7       29.88R
MANHATTAN      SUNNY     79  72  79 S10       29.84R
EMPORIA        SUNNY     76  70  82 S16       29.87S
CHANUTE        SUNNY     77  71  82 S14       29.92R
WICHITA        MOSUNNY   77  72  84 S14       29.84S
OMAHA          MOSUNNY   72  64  76 SE12      29.86S
LINCOLN        MOSUNNY   71  64  78 SE6       29.84S
FALLS CITY     PTSUNNY   78  72  81 SE15      29.86R
LAMONI         CLOUDY    71  69  93 E10G18    29.97R
DES MOINES     CLOUDY    72  69  90 S7        29.91R

$$




USA.gov is the U.S. government's official web portal to all federal, state and local government web resources and services.